Regional Weather Roundup
Issued by NWS

Home | Current Version | Previous Version | Graphics & Text | Print | Product List | Glossary On
Versions: 1 2 3 4 5 6 7 8 9 10 11 12 13 14 15 16 17 18 19 20 21 22 23 24 25 26 27 28 29 30 31 32 33 34 35 36 37 38 39 40 41 42 43 44 45 46 47 48 49 50
000
ASUS45 KCYS 012210
RWRWY

WYOMING REGIONAL WEATHER ROUNDUP
NATIONAL WEATHER SERVICE CHEYENNE WY
400 PM MDT SAT AUG 01 2015

NOTE:  "FAIR" INDICATES FEW OR NO CLOUDS BELOW 12,000 FEET
WITH NO SIGNIFICANT WEATHER AND/OR OBSTRUCTIONS TO VISIBILITY.

WYZ001-012300-
YELLOWSTONE NATIONAL PARK

CITY           SKY/WX    TMP DP  RH WIND       PRES   REMARKS
LK YELLOWSTONE   N/A     71  41  33 VRB6      30.36F
W YELLOWSTONE  NOT AVBL

$$
WYZ002>013-054>058-071-098>099-012300-
NORTHERN WYOMING

CITY           SKY/WX    TMP DP  RH WIND       PRES   REMARKS
JACKSON        NOT AVBL
CODY           FAIR      88  32  13 E10       30.09F
GREYBULL       FAIR      96  21   6 SE7       29.99F
WORLAND        FAIR      95  27   9 NE7       30.02F
SHERIDAN       FAIR      97  29   9 W13G20    29.99F HX  91
BUFFALO        FAIR      92  29  10 MISG      30.09F
GILLETTE       FAIR      94  23   8 NW12      30.02F
HULETT         FAIR      90  32  12 N3        30.03F
NEWCASTLE      FAIR      91  21   8 NW12G23   30.03S

$$
WYZ014>020-022>026-101>103-012300-
CENTRAL WYOMING

CITY           SKY/WX    TMP DP  RH WIND       PRES   REMARKS
BIG PINEY      FAIR      86  20   9 NW14      30.26F
PINEDALE       FAIR      82  25  12 N9G22     30.27S
DUBOIS         FAIR      82  19   9 NW10G16   30.26F
LANDER         FAIR      90  31  12 VRB7      30.09F
RIVERTON       FAIR      90  29  11 VRB5      30.12F
CASPER         FAIR      92  26   9 N7        30.09F
DOUGLAS        FAIR      93  33  12 W5        30.07F

$$
WYZ021-027>030-104>119-012300-
SOUTHERN WYOMING

CITY           SKY/WX    TMP DP  RH WIND       PRES   REMARKS
EVANSTON       FAIR      82  22  11 N10       30.27F
KEMMERER       FAIR     N/A N/A N/A NW8G17    30.27F
FORT BRIDGER   CLEAR     88  23   9 E8        30.27F
ROCK SPRINGS   FAIR      84  25  11 MISG      30.21F
DIXON          FAIR      89  22   8 SW7       30.21F
RAWLINS        FAIR      87  26  11 VRB7      30.20F
SARATOGA       FAIR      88  23   9 W8G25     30.22F
LARAMIE        FAIR      84  31  14 SE7       30.23F
CHEYENNE       FAIR      86  41  20 E10G20    30.15F
TORRINGTON     FAIR      93  44  18 VRB3      29.98F
PINE BLUFFS    FAIR      82  46  28 SW10      30.10R

$$


USA.gov is the U.S. government's official web portal to all federal, state and local government web resources and services.